EZY85KR EGKK-LFRN

Flight info

Callsign EZY85KR
Flight time 0h 48m
Altitude 28000
Route IMVUR N63 SAM M195 MARUK N621 LELNA DCT DOMOK UT260 UPALO
Aircraft A319/M-SDE3FGHIRWY/LB1

Departure

Time 2026-05-06 15:58
Airport London Gatwick Airport (EGKK)

Arrival

Time 2026-05-06 16:46
Airport Rennes-Saint-Jacques Airport (LFRN)
Time Latitude Longitude Altitude Speed Heading
2026-05-06 15:20 51.16152 -0.18047 216 ft 0 kts 77°
2026-05-06 15:47 51.16148 -0.18077 213 ft 4 kts 77°
2026-05-06 15:47 51.16143 -0.18111 207 ft 4 kts 79°
2026-05-06 15:48 51.16141 -0.18153 209 ft 4 kts 100°
2026-05-06 15:48 51.16151 -0.18187 210 ft 4 kts 150°
2026-05-06 15:48 51.16173 -0.18198 214 ft 2 kts 167°
2026-05-06 15:48 51.16175 -0.18199 214 ft 0 kts 167°
2026-05-06 15:50 51.16173 -0.18198 214 ft 1 kts 168°
2026-05-06 15:50 51.16154 -0.18191 215 ft 5 kts 167°
2026-05-06 15:51 51.16112 -0.18178 209 ft 8 kts 170°
2026-05-06 15:51 51.16048 -0.18155 209 ft 11 kts 165°
2026-05-06 15:51 51.15964 -0.18124 205 ft 14 kts 168°
2026-05-06 15:51 51.15864 -0.18089 208 ft 14 kts 168°
2026-05-06 15:52 51.15778 -0.18061 207 ft 11 kts 169°
2026-05-06 15:52 51.15708 -0.18045 209 ft 10 kts 191°
2026-05-06 15:52 51.15672 -0.18150 205 ft 13 kts 261°
2026-05-06 15:52 51.15652 -0.18301 205 ft 15 kts 255°
2026-05-06 15:53 51.15628 -0.18477 212 ft 17 kts 258°
2026-05-06 15:53 51.15606 -0.18645 205 ft 14 kts 258°
2026-05-06 15:53 51.15582 -0.18795 207 ft 14 kts 244°
2026-05-06 15:53 51.15507 -0.18816 207 ft 12 kts 166°
2026-05-06 15:54 51.15416 -0.18785 205 ft 15 kts 167°
2026-05-06 15:54 51.15290 -0.18740 205 ft 22 kts 167°
2026-05-06 15:54 51.15139 -0.18721 212 ft 20 kts 219°
2026-05-06 15:54 51.15098 -0.18966 213 ft 27 kts 258°
2026-05-06 15:55 51.15057 -0.19270 214 ft 28 kts 258°
2026-05-06 15:55 51.15016 -0.19576 205 ft 28 kts 257°
2026-05-06 15:55 51.14972 -0.19883 214 ft 28 kts 257°
2026-05-06 15:55 51.14931 -0.20194 205 ft 29 kts 257°
2026-05-06 15:56 51.14887 -0.20503 205 ft 28 kts 258°
2026-05-06 15:56 51.14784 -0.20698 213 ft 23 kts 224°
2026-05-06 15:56 51.14736 -0.20935 210 ft 23 kts 258°
2026-05-06 15:56 51.14701 -0.21188 205 ft 24 kts 257°
2026-05-06 15:57 51.14626 -0.21335 205 ft 15 kts 166°
2026-05-06 15:57 51.14527 -0.21249 211 ft 18 kts 133°
2026-05-06 15:57 51.14532 -0.21060 211 ft 25 kts 75°
2026-05-06 15:57 51.14634 -0.20361 210 ft 101 kts 77°
2026-05-06 15:58 51.14828 -0.18963 255 ft 153 kts 76°
2026-05-06 15:58 51.15067 -0.17325 963 ft 153 kts 73°
2026-05-06 15:58 51.15307 -0.15650 1656 ft 161 kts 73°
2026-05-06 15:58 51.15564 -0.13796 2119 ft 183 kts 74°
2026-05-06 15:59 51.15855 -0.11675 2522 ft 208 kts 75°
2026-05-06 15:59 51.16179 -0.09302 2953 ft 227 kts 75°
2026-05-06 15:59 51.16576 -0.06848 2998 ft 226 kts 63°
2026-05-06 15:59 51.17697 -0.05006 3010 ft 243 kts 24°
2026-05-06 16:00 51.19354 -0.04676 3008 ft 247 kts 349°
2026-05-06 16:00 51.20949 -0.05709 3552 ft 252 kts 326°
2026-05-06 16:00 51.22142 -0.07764 4670 ft 258 kts 300°
2026-05-06 16:00 51.22595 -0.10558 5686 ft 266 kts 271°
2026-05-06 16:01 51.22332 -0.13480 6776 ft 268 kts 262°
2026-05-06 16:01 51.21992 -0.16425 7750 ft 272 kts 261°
2026-05-06 16:01 51.21642 -0.19416 8697 ft 276 kts 261°
2026-05-06 16:01 51.21290 -0.22443 9640 ft 280 kts 261°
2026-05-06 16:02 51.20936 -0.25522 10492 ft 284 kts 262°
2026-05-06 16:02 51.20580 -0.28637 11348 ft 287 kts 262°
2026-05-06 16:02 51.20223 -0.31792 12206 ft 291 kts 262°
2026-05-06 16:02 51.19860 -0.34978 13082 ft 294 kts 261°
2026-05-06 16:03 51.19465 -0.38191 13913 ft 297 kts 260°
2026-05-06 16:03 51.19043 -0.41437 14677 ft 300 kts 259°
2026-05-06 16:03 51.18607 -0.44714 15429 ft 303 kts 259°
2026-05-06 16:03 51.18169 -0.48002 16197 ft 305 kts 259°
2026-05-06 16:04 51.17730 -0.51295 16923 ft 309 kts 259°
2026-05-06 16:04 51.17118 -0.54607 17601 ft 317 kts 249°
2026-05-06 16:04 51.16240 -0.57964 17750 ft 339 kts 248°
2026-05-06 16:04 51.15299 -0.61495 18146 ft 351 kts 248°
2026-05-06 16:05 51.14334 -0.65094 18754 ft 355 kts 248°
2026-05-06 16:05 51.13356 -0.68725 19354 ft 359 kts 248°
2026-05-06 16:05 51.12366 -0.72404 19956 ft 363 kts 248°
2026-05-06 16:05 51.11368 -0.76112 20599 ft 365 kts 248°
2026-05-06 16:06 51.10366 -0.79836 21244 ft 368 kts 248°
2026-05-06 16:06 51.09354 -0.83602 21868 ft 371 kts 248°
2026-05-06 16:06 51.08338 -0.87387 22455 ft 374 kts 248°
2026-05-06 16:06 51.07307 -0.91208 23062 ft 377 kts 248°
2026-05-06 16:07 51.06270 -0.95057 23660 ft 380 kts 248°
2026-05-06 16:07 51.05225 -0.98940 24164 ft 383 kts 248°
2026-05-06 16:07 51.04173 -1.02840 24652 ft 386 kts 248°
2026-05-06 16:07 51.03111 -1.06762 25134 ft 388 kts 248°
2026-05-06 16:08 51.02037 -1.10718 25614 ft 391 kts 248°
2026-05-06 16:08 51.00954 -1.14693 26061 ft 394 kts 247°
2026-05-06 16:08 50.99861 -1.18695 26528 ft 397 kts 247°
2026-05-06 16:08 50.98759 -1.22719 26907 ft 399 kts 247°
2026-05-06 16:09 50.97654 -1.26750 26990 ft 392 kts 247°
2026-05-06 16:09 50.96531 -1.30599 27001 ft 377 kts 242°
2026-05-06 16:09 50.95062 -1.33984 27002 ft 372 kts 231°
2026-05-06 16:09 50.93200 -1.36840 27003 ft 372 kts 220°
2026-05-06 16:10 50.91068 -1.39165 27001 ft 373 kts 215°
2026-05-06 16:10 50.88902 -1.41422 27000 ft 373 kts 215°
2026-05-06 16:10 50.86738 -1.43669 26998 ft 372 kts 215°
2026-05-06 16:10 50.84594 -1.45887 27001 ft 373 kts 214°
2026-05-06 16:11 50.82420 -1.48141 26999 ft 373 kts 215°
2026-05-06 16:11 50.80252 -1.50392 26998 ft 373 kts 215°
2026-05-06 16:11 50.78078 -1.52648 26993 ft 373 kts 215°
2026-05-06 16:11 50.75906 -1.54896 26994 ft 373 kts 215°
2026-05-06 16:12 50.73734 -1.57138 26993 ft 373 kts 214°
2026-05-06 16:12 50.72263 -1.58655 26988 ft 373 kts 214°
2026-05-06 16:12 50.70117 -1.60866 26996 ft 373 kts 214°
2026-05-06 16:12 50.67942 -1.63101 26993 ft 373 kts 214°
2026-05-06 16:13 50.65769 -1.65338 26995 ft 373 kts 215°
2026-05-06 16:13 50.63594 -1.67578 26986 ft 373 kts 214°
2026-05-06 16:13 50.61424 -1.69809 26973 ft 373 kts 214°
2026-05-06 16:13 50.59247 -1.72039 26973 ft 373 kts 214°
2026-05-06 16:14 50.57068 -1.74269 26974 ft 374 kts 214°
2026-05-06 16:14 50.54883 -1.76504 26975 ft 374 kts 214°
2026-05-06 16:14 50.52706 -1.78732 26976 ft 374 kts 214°
2026-05-06 16:14 50.50524 -1.80963 26977 ft 374 kts 214°
2026-05-06 16:15 50.48337 -1.83194 26979 ft 374 kts 214°
2026-05-06 16:15 50.46152 -1.85421 26972 ft 374 kts 214°
2026-05-06 16:15 50.43969 -1.87644 26980 ft 374 kts 214°
2026-05-06 16:15 50.41785 -1.89868 26980 ft 374 kts 214°
2026-05-06 16:16 50.39598 -1.92092 26978 ft 374 kts 214°
2026-05-06 16:16 50.37413 -1.94308 26978 ft 374 kts 214°
2026-05-06 16:16 50.35222 -1.96525 26976 ft 375 kts 214°
2026-05-06 16:16 50.33031 -1.98739 26979 ft 375 kts 214°
2026-05-06 16:17 50.30839 -2.00952 26980 ft 375 kts 214°
2026-05-06 16:17 50.28646 -2.03166 26983 ft 375 kts 214°
2026-05-06 16:17 50.26410 -2.05302 26976 ft 376 kts 208°
2026-05-06 16:17 50.23986 -2.06837 26979 ft 378 kts 198°
2026-05-06 16:18 50.21408 -2.07649 26987 ft 379 kts 187°
2026-05-06 16:18 50.18777 -2.07989 26987 ft 380 kts 186°
2026-05-06 16:18 50.16176 -2.08320 26981 ft 380 kts 186°
2026-05-06 16:18 50.13540 -2.08662 26982 ft 380 kts 186°
2026-05-06 16:19 50.10903 -2.09007 26983 ft 380 kts 186°
2026-05-06 16:19 50.08266 -2.09353 26984 ft 380 kts 186°
2026-05-06 16:19 50.05625 -2.09696 26985 ft 380 kts 186°
2026-05-06 16:19 50.02985 -2.10036 26986 ft 380 kts 186°
2026-05-06 16:20 50.00347 -2.10376 26982 ft 380 kts 186°
2026-05-06 16:20 49.97703 -2.10693 26987 ft 381 kts 185°
2026-05-06 16:20 49.95056 -2.10834 26981 ft 381 kts 182°
2026-05-06 16:20 49.92401 -2.10830 26982 ft 381 kts 180°
2026-05-06 16:21 49.89741 -2.10756 26987 ft 381 kts 180°
2026-05-06 16:21 49.87121 -2.10669 26983 ft 381 kts 180°
2026-05-06 16:21 49.84470 -2.10595 26990 ft 381 kts 180°
2026-05-06 16:21 49.81818 -2.10544 26991 ft 381 kts 181°
2026-05-06 16:22 49.79168 -2.10514 26992 ft 381 kts 181°
2026-05-06 16:22 49.76510 -2.10498 26992 ft 381 kts 181°
2026-05-06 16:22 49.73865 -2.10469 26992 ft 381 kts 179°
2026-05-06 16:22 49.71230 -2.09940 26988 ft 383 kts 168°
2026-05-06 16:23 49.68662 -2.08847 26986 ft 383 kts 165°
2026-05-06 16:23 49.66095 -2.07711 26988 ft 383 kts 165°
2026-05-06 16:23 49.63534 -2.06579 26993 ft 383 kts 165°
2026-05-06 16:23 49.60971 -2.05446 26985 ft 383 kts 165°
2026-05-06 16:24 49.58403 -2.04317 26987 ft 383 kts 165°
2026-05-06 16:24 49.55836 -2.03193 26991 ft 383 kts 165°
2026-05-06 16:24 49.53284 -2.02076 26800 ft 379 kts 165°
2026-05-06 16:24 49.50757 -2.00972 26541 ft 376 kts 165°
2026-05-06 16:25 49.48247 -1.99877 26276 ft 374 kts 165°
2026-05-06 16:25 49.45744 -1.98786 26021 ft 373 kts 165°
2026-05-06 16:25 49.43256 -1.97700 25771 ft 372 kts 165°
2026-05-06 16:25 49.40773 -1.96618 25516 ft 370 kts 165°
2026-05-06 16:26 49.38300 -1.95540 25266 ft 369 kts 165°
2026-05-06 16:26 49.35833 -1.94465 25020 ft 368 kts 165°
2026-05-06 16:26 49.33384 -1.93402 24734 ft 363 kts 166°
2026-05-06 16:26 49.30956 -1.92353 24303 ft 361 kts 166°
2026-05-06 16:27 49.28544 -1.91312 23837 ft 360 kts 166°
2026-05-06 16:27 49.26136 -1.90274 23371 ft 358 kts 166°
2026-05-06 16:27 49.23777 -1.89259 22902 ft 356 kts 166°
2026-05-06 16:27 49.21372 -1.88222 22463 ft 353 kts 166°
2026-05-06 16:28 49.19048 -1.87218 22031 ft 350 kts 166°
2026-05-06 16:28 49.16711 -1.86206 21602 ft 348 kts 166°
2026-05-06 16:28 49.14383 -1.85196 21182 ft 346 kts 166°
2026-05-06 16:28 49.12073 -1.84198 20759 ft 344 kts 166°
2026-05-06 16:29 49.09774 -1.83214 20350 ft 342 kts 166°
2026-05-06 16:29 49.07489 -1.82236 19938 ft 340 kts 166°
2026-05-06 16:29 49.05213 -1.81263 19526 ft 339 kts 166°
2026-05-06 16:29 49.02943 -1.80291 19118 ft 338 kts 166°
2026-05-06 16:30 49.00669 -1.79318 18713 ft 341 kts 166°
2026-05-06 16:30 48.99161 -1.78672 18446 ft 341 kts 166°
2026-05-06 16:30 48.96115 -1.77367 17868 ft 339 kts 166°
2026-05-06 16:30 48.93852 -1.76404 17473 ft 336 kts 166°
2026-05-06 16:31 48.91605 -1.75447 17083 ft 333 kts 166°
2026-05-06 16:31 48.89383 -1.74499 16698 ft 331 kts 166°
2026-05-06 16:31 48.87197 -1.73564 16312 ft 330 kts 166°
2026-05-06 16:31 48.84991 -1.72622 15926 ft 328 kts 166°
2026-05-06 16:32 48.82797 -1.71689 15545 ft 327 kts 166°
2026-05-06 16:32 48.80614 -1.70761 15164 ft 325 kts 166°
2026-05-06 16:32 48.78436 -1.69838 14792 ft 324 kts 166°
2026-05-06 16:32 48.76271 -1.68921 14426 ft 323 kts 166°
2026-05-06 16:33 48.74113 -1.68011 14067 ft 322 kts 166°
2026-05-06 16:33 48.71960 -1.67105 13694 ft 320 kts 166°
2026-05-06 16:33 48.69812 -1.66202 13290 ft 319 kts 166°
2026-05-06 16:34 48.65558 -1.64411 12496 ft 316 kts 166°
2026-05-06 16:34 48.63451 -1.63522 12097 ft 314 kts 166°
2026-05-06 16:34 48.61351 -1.62643 11709 ft 312 kts 166°
2026-05-06 16:34 48.59259 -1.61767 11331 ft 310 kts 166°
2026-05-06 16:35 48.57186 -1.60899 10959 ft 308 kts 166°
2026-05-06 16:35 48.55150 -1.60045 10592 ft 306 kts 166°
2026-05-06 16:35 48.53078 -1.59181 10220 ft 304 kts 166°
2026-05-06 16:35 48.51078 -1.58343 9967 ft 298 kts 166°
2026-05-06 16:36 48.49105 -1.57510 9707 ft 292 kts 166°
2026-05-06 16:36 48.47157 -1.56686 9330 ft 290 kts 166°
2026-05-06 16:36 48.45223 -1.55872 8955 ft 288 kts 166°
2026-05-06 16:36 48.43295 -1.55068 8562 ft 286 kts 166°
2026-05-06 16:37 48.41381 -1.54281 8151 ft 284 kts 166°
2026-05-06 16:37 48.39474 -1.53511 7742 ft 283 kts 166°
2026-05-06 16:37 48.37579 -1.52752 7337 ft 281 kts 166°
2026-05-06 16:37 48.35693 -1.51998 6939 ft 279 kts 166°
2026-05-06 16:38 48.33815 -1.51252 6552 ft 278 kts 166°
2026-05-06 16:38 48.31935 -1.50628 6144 ft 276 kts 170°
2026-05-06 16:38 48.30048 -1.50126 5723 ft 274 kts 171°
2026-05-06 16:38 48.28176 -1.49649 5321 ft 272 kts 171°
2026-05-06 16:39 48.26344 -1.49187 5164 ft 260 kts 171°
2026-05-06 16:39 48.24624 -1.48754 5032 ft 248 kts 171°
2026-05-06 16:39 48.22948 -1.48333 4798 ft 241 kts 171°
2026-05-06 16:39 48.21297 -1.47926 4454 ft 240 kts 171°
2026-05-06 16:40 48.19661 -1.47524 4153 ft 237 kts 171°
2026-05-06 16:40 48.18047 -1.47132 3857 ft 234 kts 171°
2026-05-06 16:40 48.16437 -1.46747 3601 ft 234 kts 171°
2026-05-06 16:40 48.14830 -1.46366 3345 ft 233 kts 171°
2026-05-06 16:41 48.13231 -1.45993 3088 ft 232 kts 171°
2026-05-06 16:41 48.11644 -1.45642 2828 ft 230 kts 173°
2026-05-06 16:41 48.10052 -1.45531 2568 ft 229 kts 180°
2026-05-06 16:41 48.08459 -1.45567 2314 ft 228 kts 181°
2026-05-06 16:42 48.06890 -1.45834 2083 ft 228 kts 193°
2026-05-06 16:42 48.05433 -1.46735 1986 ft 228 kts 218°
2026-05-06 16:42 48.04513 -1.48541 2005 ft 217 kts 250°
2026-05-06 16:42 48.04328 -1.50699 2005 ft 206 kts 279°
2026-05-06 16:43 48.04590 -1.52797 2055 ft 204 kts 282°
2026-05-06 16:43 48.04859 -1.54876 2035 ft 202 kts 282°
2026-05-06 16:43 48.05119 -1.56919 1948 ft 197 kts 282°
2026-05-06 16:43 48.05366 -1.58847 1843 ft 183 kts 282°
2026-05-06 16:44 48.05601 -1.60681 1646 ft 177 kts 282°
2026-05-06 16:44 48.05828 -1.62462 1444 ft 170 kts 282°
2026-05-06 16:44 48.06041 -1.64147 1179 ft 160 kts 282°
2026-05-06 16:44 48.06246 -1.65749 976 ft 154 kts 282°
2026-05-06 16:45 48.06444 -1.67305 771 ft 151 kts 283°
2026-05-06 16:45 48.06636 -1.68822 576 ft 146 kts 283°
2026-05-06 16:45 48.06827 -1.70307 363 ft 145 kts 283°
2026-05-06 16:45 48.07008 -1.71792 186 ft 145 kts 283°
2026-05-06 16:46 48.07186 -1.73158 127 ft 110 kts 280°
2026-05-06 16:46 48.07270 -1.73847 111 ft 33 kts 281°
2026-05-06 16:46 48.07316 -1.74188 103 ft 29 kts 280°
2026-05-06 16:46 48.07329 -1.74415 97 ft 20 kts 253°
2026-05-06 16:47 48.07299 -1.74579 89 ft 10 kts 291°
2026-05-06 16:47 48.07363 -1.74564 90 ft 10 kts 59°
2026-05-06 16:47 48.07356 -1.74483 92 ft 7 kts 110°
2026-05-06 16:47 48.07344 -1.74415 97 ft 7 kts 99°
2026-05-06 16:48 48.07336 -1.74343 100 ft 7 kts 101°
2026-05-06 16:48 48.07324 -1.74248 102 ft 12 kts 101°
2026-05-06 16:48 48.07305 -1.74102 104 ft 16 kts 101°
2026-05-06 16:48 48.07283 -1.73941 110 ft 15 kts 103°
2026-05-06 16:49 48.07264 -1.73794 114 ft 14 kts 100°
2026-05-06 16:49 48.07243 -1.73656 119 ft 13 kts 115°
2026-05-06 16:49 48.07180 -1.73583 122 ft 11 kts 152°
2026-05-06 16:49 48.07119 -1.73530 125 ft 10 kts 148°
2026-05-06 16:50 48.07067 -1.73472 129 ft 7 kts 103°
2026-05-06 16:50 48.07061 -1.73398 130 ft 8 kts 99°
2026-05-06 16:50 48.07051 -1.73311 127 ft 10 kts 100°
2026-05-06 16:50 48.07042 -1.73238 132 ft 11 kts 99°
2026-05-06 16:51 48.07020 -1.73063 133 ft 15 kts 101°
2026-05-06 16:51 48.07001 -1.72906 133 ft 15 kts 101°
2026-05-06 16:51 48.06983 -1.72771 133 ft 12 kts 100°
2026-05-06 16:51 48.06964 -1.72683 133 ft 4 kts 150°
2026-05-06 16:52 48.06936 -1.72689 133 ft 4 kts 212°
2026-05-06 16:52 48.06918 -1.72720 133 ft 3 kts 226°
2026-05-06 16:52 48.06909 -1.72733 133 ft 0 kts 224°